sat.trackr.live / text

‹ back to catalog

STARLINK-37555

NORAD 69431 · 2026-126M

PAYLOAD ACTIVE UNKNOWN

§ Identity

Operator
Country
US
Launch date
2026-06-07
Launch site
AFWTR
Launch vehicle
Mass (kg)
RCS (m²)

Purposes: comms

External: N2YO · Heavens-Above · Gunter

§ Orbital elements

Epoch: 2026-09-19T21:32:30.086016Z

Period
93.91 min
Inclination
97.2848°
Eccentricity
0.0002342
Mean motion
15.33459846 rev/d
Perigee alt
463.9 km
Apogee alt
467.1 km
Semi-major
6,843.6 km
B*
6.1882e-4
RAAN
124.1639°
Arg perigee
89.5329°
Mean anomaly
270.6182°
Rev number
1,748

§ Raw data

STARLINK-375551 69431U 26126M   26262.89757044  .00019966  00000+0  61882-3 0  99902 69431  97.2848 124.1639 0002342  89.5329 270.6182 15.33459846 17480

JSON: /api/v1/satellites/69431 · /tle

For live sub-satellite position, see the globe view (requires WebGL).

§ Visibility from observer

Set your observer location to see the next 7 days of passes ≥ 10°. The values pass through the URL so the page stays shareable.

No JS? Fill the form by hand. The geolocation button needs JavaScript.